Powrót do katalogu

STARLINK-2585

AktywnyŁącznośćVLEO
NORAD 48382·PAYLOAD·🇺🇸 United States

Wystrzelony May 4, 2021 z Cape Canaveral Space Force Station

Loading…

Następne Przeloty (najbliższe 24 godziny)

TLE

ŚwieżeSource: CelesTrak SupGP

Epoka: Sep 15, 2026, 00:45 UTC

1 48382C 21038AF  26258.03173611 -.00015414  00000+0 -49578-3 0  2584
2 48382  53.1589 186.6365 0001503  90.0073 132.4094 15.31702552    16

Śledź STARLINK-2585 w czasie rzeczywistym z AllMySat

Download on the App Store